Wind_Speed
23 23 23 24 24 23 22 22 22 22 22 22 21 20 20 19 19 19 18 17 15 14 13 12 11 11 13 13 12 11 10 9 11 12 11 11 11 12 12 8 8 9 8 8 8 8 8 8 7 8 8 6 4 5 6 4 3 2 3 3 2 3 2 4 6 6 4 5 8 12 13 9 5 7 10 8 9 13 11 8 10 10 10 9 7 10 18 21
23 23 23 24 25 25 24 23 22 22 21 21 21 20 20 19 18 18 17 16 15 14 13 12 11 12 13 13 12 11 9 9 10 13 12 11 12 12 10 9 9 10 9 9 10 10 9 9 8 8 6 5 4 5 6 5 4 3 3 3 3 5 3 3 4 6 3 6 13 14 13 11 9 12 12 7 6 10 8 6 9 10 12 11 10 13 17 19
24 24 23 24 26 26 25 24 23 22 21 21 21 20 19 18 18 17 16 15 14 14 13 12 11 12 14 13 12 10 9 8 10 13 13 11 12 11 9 9 10 10 10 10 11 11 10 8 8 8 5 4 4 5 5 5 4 2 3 3 5 6 3 1 1 3 5 9 15 13 12 9 9 14 12 7 7 6 7 9 9 11 14 14 12 14 16 18
23 24 24 24 25 26 26 25 23 22 22 21 20 20 19 18 17 16 16 15 14 13 13 12 12 13 14 14 12 10 8 6 9 14 14 12 11 11 9 9 10 11 11 11 11 10 9 7 7 7 5 3 3 5 4 5 5 2 4 3 5 5 2 1 3 1 4 13 17 14 11 6 8 14 12 10 7 3 11 16 14 13 16 17 16 16 16 17
21 22 23 24 25 26 26 25 24 23 22 21 20 20 19 18 17 16 15 15 14 13 13 12 13 14 15 14 12 10 7 2 7 14 14 13 11 10 10 9 11 12 12 12 11 10 9 7 6 7 4 2 4 4 3 6 6 3 1 2 4 5 2 1 2 1 5 12 14 12 9 6 9 11 12 13 9 7 14 17 16 14 15 17 17 18 18 18
21 22 23 24 25 25 26 25 24 23 22 21 21 20 19 18 17 16 15 14 14 13 13 13 13 15 15 15 12 12 9 3 6 13 14 14 12 10 10 10 11 12 12 12 11 10 10 8 7 7 4 2 4 4 4 8 6 3 1 1 3 5 4 4 3 3 8 11 11 10 9 9 10 7 12 14 12 10 10 12 15 14 13 15 17 19 20 20
22 22 22 24 24 25 26 26 25 24 22 21 21 20 19 18 16 16 15 14 14 14 13 14 14 15 15 15 13 13 13 6 5 10 13 14 12 10 10 10 11 11 12 12 11 11 11 10 7 6 3 2 4 4 4 7 5 4 2 2 2 3 5 7 6 6 8 11 10 9 9 10 9 6 8 13 16 13 7 6 9 13 15 16 18 20 21 20
21 22 23 24 24 24 25 26 26 24 23 22 20 20 18 17 17 16 15 14 14 14 14 14 15 16 15 15 14 11 13 10 3 5 12 14 12 11 11 11 12 11 12 12 11 11 11 10 8 5 2 1 4 5 6 5 2 3 3 4 3 3 4 6 6 6 7 9 8 8 8 8 8 4 6 13 17 14 11 8 7 9 13 16 19 20 21 21
20 22 24 24 24 24 25 25 26 25 23 22 20 20 19 17 16 15 15 14 14 14 14 14 15 16 15 15 13 8 10 11 5 5 11 14 12 12 12 12 13 13 14 13 11 12 12 9 8 6 3 3 5 5 7 5 1 2 7 7 5 3 4 5 6 6 5 5 6 5 3 4 6 3 7 16 17 16 16 14 12 11 12 14 17 19 21 21
20 22 23 24 24 25 25 25 25 24 23 22 21 20 18 17 16 15 14 14 14 14 14 15 15 16 16 16 12 6 9 11 7 7 11 13 13 13 13 13 13 14 14 14 12 12 11 7 7 8 3 3 6 5 4 5 3 7 11 9 6 4 4 3 5 5 4 3 3 4 2 2 5 1 6 12 11 15 19 18 17 16 16 15 15 18 19 20
19 21 23 24 24 25 25 25 24 24 23 22 21 20 19 17 15 15 14 13 13 14 14 15 15 16 16 16 13 7 8 10 9 9 12 13 13 12 13 13 13 14 14 13 12 11 10 7 7 8 4 4 7 4 4 6 8 13 15 8 3 2 1 2 3 4 3 2 1 1 0 1 2 2 11 12 6 10 17 20 20 19 19 17 16 17 19 20
18 20 23 24 24 25 25 25 25 25 24 22 21 20 19 17 16 14 13 12 13 14 14 15 15 16 16 15 15 10 7 10 11 11 13 13 14 13 13 14 13 12 12 12 12 10 9 8 6 5 5 8 7 3 5 8 11 14 12 5 4 6 3 4 3 4 3 1 1 1 2 4 2 8 17 12 5 7 11 18 22 22 21 19 18 19 20 21
17 19 21 23 24 24 25 25 25 25 25 23 21 20 19 17 16 14 13 12 13 14 14 14 15 15 15 12 14 12 6 10 14 13 15 15 14 14 14 15 12 10 9 10 11 10 10 8 5 6 8 9 5 5 7 7 10 9 5 4 2 6 4 5 2 3 3 1 2 3 2 6 6 15 20 11 8 10 11 16 21 22 22 21 20 20 20 20
17 19 20 22 23 24 25 25 24 25 25 23 22 20 19 17 15 14 13 12 13 14 13 14 14 15 14 9 10 13 9 12 16 16 17 16 15 14 14 15 12 11 9 9 10 11 10 7 6 8 9 8 7 9 6 4 5 4 1 2 3 2 4 6 1 5 5 2 3 4 1 7 8 13 13 9 12 13 13 15 17 21 22 22 22 22 22 21
18 19 20 21 23 24 24 25 24 24 25 24 22 20 19 17 16 14 13 13 13 13 13 14 14 14 11 7 8 12 12 15 18 18 17 16 15 15 14 14 12 11 9 9 10 10 10 9 8 8 8 9 11 9 4 4 3 3 2 1 3 3 4 7 2 8 6 2 2 4 1 6 9 10 6 4 7 11 14 14 15 19 20 22 23 23 23 22
20 20 20 20 22 24 24 24 24 24 24 23 21 20 19 18 16 15 13 13 13 13 13 13 15 13 7 5 7 11 14 18 19 19 18 16 15 14 13 13 11 11 10 10 10 10 11 10 7 7 8 8 8 6 4 4 3 4 3 3 2 2 3 5 2 6 5 2 1 2 2 4 5 5 2 4 1 7 12 13 14 17 19 21 23 24 25 25
20 21 20 20 22 24 24 24 24 23 24 23 21 19 19 18 17 15 13 13 12 13 13 11 14 12 5 5 8 12 17 20 21 19 18 16 14 13 13 12 11 11 11 11 10 10 10 9 8 6 4 4 4 5 5 1 3 2 2 1 3 3 3 2 3 4 3 3 2 1 3 7 7 9 8 4 2 6 11 14 16 17 19 21 22 24 25 25
20 21 21 22 22 24 24 24 24 24 23 23 21 20 20 18 16 15 13 14 13 12 11 11 14 8 6 9 10 12 18 20 21 21 18 16 14 13 13 12 12 12 12 11 8 8 7 5 6 3 3 3 2 5 4 4 5 5 3 2 2 2 2 3 3 3 3 3 3 2 3 10 12 15 20 19 14 13 16 20 22 23 25 26 26 28 27 28
19 20 22 23 23 24 25 25 25 24 23 22 21 21 20 17 15 13 14 17 15 10 5 12 18 6 3 13 14 13 19 20 21 21 18 17 15 14 14 12 13 13 11 7 4 5 6 4 5 3 2 3 4 6 6 7 8 8 6 5 4 3 3 5 4 4 3 3 3 6 6 9 11 12 18 25 22 16 19 24 27 29 30 31 31 32 31 32
20 21 22 23 24 25 25 26 26 25 24 23 24 22 18 15 10 7 14 19 17 7 0 12 23 7 2 13 20 16 18 19 20 22 19 18 17 15 13 12 11 9 6 5 3 3 4 4 3 5 7 7 7 7 6 5 6 7 6 5 4 4 2 4 3 4 1 3 5 7 6 9 11 10 15 26 23 15 19 24 28 33 34 34 34 34 34 33
21 21 22 22 23 25 25 26 26 25 26 24 27 24 18 18 10 5 13 14 14 8 1 13 25 10 1 13 22 19 17 17 18 22 20 19 19 14 12 10 7 4 1 4 5 2 4 4 6 8 9 8 7 7 7 6 5 5 6 5 2 3 2 3 2 4 2 2 4 3 5 10 11 10 16 22 17 16 23 24 29 35 34 34 34 34 35 33
22 22 22 22 22 24 25 26 26 26 28 27 30 25 19 23 16 10 14 10 12 10 1 14 24 11 5 12 19 19 16 12 13 21 21 20 19 13 10 8 5 3 1 3 6 3 3 3 9 9 7 5 5 6 8 6 5 5 4 5 2 3 3 3 3 4 3 1 4 5 6 11 10 10 16 20 18 22 27 25 29 34 31 32 32 33 33 32
23 23 22 21 21 23 24 25 27 29 31 30 31 26 19 23 17 11 14 8 9 13 7 14 20 12 10 13 17 18 14 9 11 20 22 21 19 13 11 8 4 4 3 4 6 4 2 5 8 7 7 6 6 4 7 6 4 4 4 4 2 3 1 2 4 5 3 1 2 4 6 10 8 6 12 18 20 23 25 25 30 32 31 33 33 31 31 30
22 22 22 21 20 21 23 26 29 30 32 30 29 26 19 22 19 13 13 4 2 12 12 14 16 16 14 13 16 17 12 10 12 21 24 22 19 13 10 9 6 5 4 5 8 7 5 6 3 7 6 6 6 4 7 6 1 1 3 6 3 3 3 3 3 3 3 4 3 4 5 8 5 5 8 9 9 14 16 16 23 26 26 30 30 27 26 26
21 21 21 21 20 20 23 26 29 31 32 30 28 25 20 22 21 16 11 2 1 6 10 13 13 16 17 12 16 17 11 9 12 20 26 25 20 12 8 8 6 4 5 6 8 5 6 5 4 8 4 5 7 4 6 7 3 2 3 6 6 6 6 2 2 4 4 5 3 4 4 6 5 6 8 7 6 9 11 12 19 24 21 21 23 21 20 20
20 22 20 21 22 22 24 23 28 32 31 30 28 23 21 21 21 18 10 4 2 3 6 11 9 13 18 13 16 16 6 6 10 19 27 24 20 13 7 5 3 4 6 6 5 2 3 0 4 7 5 6 6 3 4 6 6 1 4 5 6 7 7 5 3 3 1 3 3 4 3 5 7 6 9 8 8 11 14 14 21 31 28 20 18 18 16 16
15 20 20 21 23 24 23 19 27 32 27 26 25 22 21 21 21 19 8 6 3 4 7 10 8 12 15 13 19 15 3 6 9 16 26 23 18 13 7 4 2 3 6 5 2 2 2 3 5 6 6 6 5 3 5 6 7 3 4 6 7 8 8 6 6 3 2 3 5 4 4 3 7 7 7 5 6 9 12 13 18 30 31 21 17 19 17 14
10 17 21 22 23 24 21 17 27 32 24 22 23 21 21 22 21 16 6 3 3 5 6 8 9 12 14 16 22 12 6 13 9 10 24 22 16 10 5 6 6 5 4 6 4 4 1 4 4 6 6 3 5 4 6 8 6 4 4 7 7 7 7 5 6 3 2 3 5 4 2 2 6 8 6 3 3 7 11 13 14 21 24 18 17 18 15 12
9 15 20 22 21 21 16 16 28 29 21 21 22 20 21 23 20 10 3 1 3 3 3 10 12 11 13 16 16 9 9 10 5 10 21 18 14 7 2 8 9 6 3 4 6 4 1 3 5 7 5 5 4 3 4 5 4 4 5 7 6 6 6 5 5 3 3 2 5 5 5 3 5 7 5 2 2 7 10 10 10 15 18 14 11 11 9 8
11 13 18 21 21 20 14 16 27 26 19 22 22 22 23 21 13 6 2 4 2 2 3 9 11 10 14 12 5 4 6 3 5 15 15 10 11 7 5 8 7 7 5 6 4 2 2 1 1 3 4 5 5 3 2 3 6 9 7 7 7 6 5 4 3 4 2 3 7 7 7 4 4 6 5 4 4 6 6 7 8 11 11 7 6 6 6 5
13 15 18 21 22 20 15 17 26 24 20 22 21 22 21 11 4 4 5 3 2 2 3 4 5 8 16 12 4 3 2 2 7 14 9 4 6 5 6 6 3 5 3 4 3 4 4 3 1 0 3 6 7 5 6 4 6 7 5 5 4 4 4 4 4 4 1 5 6 5 2 3 4 6 5 6 8 6 5 7 8 8 4 2 3 4 4 5
13 15 17 19 19 19 15 15 23 23 20 22 22 21 14 4 1 4 4 2 2 3 5 5 4 6 12 10 6 5 3 2 4 8 6 4 4 4 5 5 4 4 2 3 1 3 2 0 3 1 2 5 6 5 5 5 5 5 5 6 4 2 2 2 3 0 3 6 4 2 1 2 6 7 7 9 10 8 8 9 9 7 2 2 3 3 4 5
15 15 15 16 17 17 14 13 20 22 20 24 23 15 7 3 6 8 5 2 2 2 5 5 3 6 10 9 5 5 4 2 5 4 3 4 5 5 3 3 5 5 3 5 4 2 1 5 3 1 2 5 6 6 3 1 1 4 5 6 5 3 2 3 3 1 4 5 3 2 1 3 5 4 9 11 8 6 6 9 9 7 2 1 1 3 5 5
16 16 16 16 16 17 14 13 19 21 20 25 20 8 5 5 7 8 7 5 1 2 2 4 7 8 8 6 5 6 3 1 5 5 3 4 5 6 5 5 4 4 4 4 4 5 4 4 4 4 3 6 6 5 7 6 4 4 4 6 5 5 5 4 4 3 4 3 3 3 1 4 3 2 7 11 11 11 10 9 9 8 8 8 8 8 8 8
11 14 18 18 18 19 16 15 18 20 23 23 12 4 7 9 6 6 7 5 1 2 3 4 9 9 6 1 2 6 3 1 4 4 4 6 6 7 6 6 6 4 5 5 2 3 3 5 6 2 2 10 8 5 7 7 2 2 2 4 4 5 5 2 3 6 3 2 3 2 3 5 4 5 8 9 13 13 11 10 10 10 9 10 13 13 12 11
8 10 17 22 22 21 20 18 17 19 24 19 7 5 9 7 3 4 6 4 4 5 6 4 4 6 6 2 2 6 1 2 5 4 3 4 3 5 6 5 8 7 6 6 3 2 2 4 5 2 1 4 6 5 6 5 3 2 2 3 5 4 6 4 2 0 3 2 3 2 5 6 3 7 9 6 8 10 9 10 12 12 10 12 17 18 16 13
7 8 13 22 25 22 21 19 16 19 21 13 6 8 6 3 1 3 3 4 8 10 9 5 2 4 6 3 4 7 2 2 4 3 4 3 2 6 6 4 7 11 9 6 2 3 5 2 5 1 2 3 1 3 1 1 4 5 4 6 2 2 4 4 2 2 3 3 4 2 6 6 2 5 6 3 6 9 8 9 12 15 16 18 21 21 18 12
7 7 10 14 19 20 20 17 14 18 15 7 7 8 3 2 1 2 1 2 9 9 6 5 3 4 6 5 4 7 5 4 5 4 4 3 4 7 9 4 7 14 14 7 2 3 5 2 5 1 2 3 2 3 1 3 3 5 4 4 4 2 1 2 2 2 1 3 5 4 5 5 5 6 3 1 6 9 9 9 10 13 18 21 21 21 18 12
10 8 9 10 13 15 16 16 17 18 11 6 10 8 1 1 1 4 3 1 4 5 4 5 3 2 6 7 6 7 6 6 7 6 4 4 5 6 12 9 6 13 18 12 5 3 4 4 4 2 1 1 3 2 6 2 2 3 2 3 3 3 4 3 3 3 4 4 3 3 3 4 6 7 6 7 9 8 9 9 8 13 22 25 22 20 16 9
13 7 6 11 14 13 14 17 18 15 9 6 7 4 0 1 1 3 6 3 1 2 2 5 3 4 5 5 4 6 6 5 8 7 4 6 5 4 9 11 5 9 16 12 6 2 3 4 4 2 2 1 2 4 7 9 5 3 3 4 3 1 2 2 1 2 4 4 3 3 5 6 5 4 9 11 10 10 11 11 10 17 26 27 23 20 12 4
14 6 4 12 15 14 16 16 10 6 3 3 1 1 0 1 0 2 5 5 3 3 2 3 4 5 5 5 3 4 5 4 7 6 3 6 7 4 9 15 9 8 8 6 5 5 3 3 4 2 1 4 5 5 5 10 10 7 7 8 8 6 4 3 4 2 2 3 5 4 6 9 5 4 7 8 8 10 13 12 12 18 23 20 16 14 6 4
14 3 5 14 16 18 17 8 2 3 2 2 2 2 2 1 1 1 3 3 3 3 3 2 2 2 4 5 5 5 6 4 5 6 4 7 10 6 9 17 18 17 12 6 8 7 3 4 5 3 4 6 7 5 3 6 5 3 4 6 7 7 6 6 6 4 1 2 3 3 4 8 4 5 7 7 7 11 14 14 14 18 14 5 2 3 6 8
13 4 7 16 20 23 17 3 1 3 1 2 2 2 2 1 1 0 1 1 2 2 2 2 1 2 1 2 4 6 7 6 6 8 6 6 9 8 9 17 20 18 12 5 5 5 3 4 4 1 3 3 5 5 3 0 1 3 4 3 4 4 4 5 5 4 3 4 3 2 5 8 4 2 5 6 6 8 10 11 12 8 2 8 9 9 10 10
12 5 5 13 22 25 15 2 2 4 2 3 3 2 3 2 1 2 1 1 1 2 2 0 1 2 1 2 3 6 7 5 6 9 6 4 6 6 9 18 19 13 9 8 8 10 6 3 4 3 1 3 3 3 3 2 2 3 3 3 4 4 5 4 1 2 2 6 7 5 8 9 4 3 3 4 3 3 1 5 5 4 8 11 11 10 9 8
9 3 3 10 21 26 14 3 4 5 4 6 5 4 5 2 3 4 3 2 2 3 2 1 1 2 1 2 4 1 3 2 3 6 5 3 3 1 5 14 18 14 12 14 15 15 9 4 5 7 6 7 6 6 5 4 3 2 3 7 8 8 9 5 3 3 5 8 8 7 9 9 3 4 4 3 4 4 1 4 3 8 10 9 8 7 5 6
5 2 3 6 13 18 13 7 7 6 4 6 4 5 8 4 2 5 6 3 2 3 1 1 2 3 2 1 3 1 1 1 1 2 4 4 3 1 1 7 14 15 11 11 17 14 4 3 8 10 11 12 11 9 6 9 7 7 10 12 11 11 13 10 5 6 10 9 7 9 12 12 8 4 5 4 2 2 3 5 3 5 9 5 2 2 6 8
3 1 4 3 4 7 6 6 7 5 6 8 4 3 9 7 1 3 8 7 5 6 2 1 2 2 1 3 2 1 2 1 2 2 2 3 3 2 2 0 6 10 6 7 16 12 3 3 10 12 14 14 12 9 9 13 14 15 16 14 13 13 13 12 11 13 12 8 9 13 12 13 15 11 7 8 6 4 6 10 9 3 0 3 6 9 12 13
3 1 4 5 2 3 3 6 7 5 7 10 5 3 7 9 5 5 7 5 3 7 5 1 4 7 6 4 3 1 1 0 1 3 1 1 1 1 2 2 0 3 2 4 10 7 3 5 8 9 13 15 11 7 10 13 13 14 17 16 16 16 15 16 18 20 16 10 12 17 13 13 19 14 9 12 11 9 13 14 11 8 7 9 11 14 16 18
5 3 4 4 2 1 2 6 9 6 7 9 5 4 8 11 10 6 5 4 1 6 9 4 6 10 9 6 5 3 3 3 3 3 2 1 1 1 1 1 1 1 2 3 4 2 3 5 6 8 10 14 13 8 10 12 10 9 14 15 15 17 19 21 22 23 20 15 15 19 16 16 18 10 9 16 19 20 23 18 12 12 13 13 14 17 19 23
6 4 3 3 2 1 2 6 9 6 6 7 5 5 8 11 12 7 4 7 5 4 9 10 8 9 9 8 7 6 8 6 4 4 4 3 1 1 1 2 1 2 3 2 1 0 2 4 3 5 6 11 13 9 8 10 10 9 11 12 13 15 18 20 20 18 16 15 17 19 17 17 12 7 11 18 18 18 18 15 14 16 15 14 17 22 26 28
9 5 3 2 1 2 2 3 5 4 4 6 6 6 7 9 11 8 4 9 11 7 9 14 10 6 6 7 8 10 13 11 9 9 7 5 3 2 1 2 2 3 3 1 1 1 1 2 0 3 5 11 10 7 8 6 5 7 10 13 15 15 14 14 14 14 14 15 17 16 15 15 8 8 11 13 10 11 13 14 16 16 15 17 23 28 29 26
14 8 4 2 1 2 3 2 3 4 5 7 7 6 5 5 8 9 5 9 16 16 16 16 10 5 4 8 13 19 21 18 17 16 11 9 9 7 4 3 2 2 2 1 1 1 1 2 2 3 7 11 6 6 8 6 3 7 13 17 18 14 11 10 12 15 16 14 13 12 14 14 5 6 9 8 8 11 15 17 19 19 20 24 28 29 26 23
Wind_Direction
183 181 185 180 178 180 183 188 190 187 180 176 176 179 180 178 176 175 179 183 187 190 192 193 192 192 187 185 186 189 193 194 194 194 193 186 175 175 184 190 178 170 171 174 169 165 164 151 152 162 164 157 149 177 180 181 166 133 108 99 175 190 195 187 187 200 170 165 185 188 179 159 150 151 148 147 160 158 160 177 170 173 164 161 172 155 165 172
183 181 185 183 179 180 184 189 194 192 185 180 179 181 182 181 180 178 181 187 191 192 194 195 192 191 188 185 187 188 194 198 201 199 190 184 176 173 180 184 180 174 173 174 168 161 154 150 152 154 158 155 149 165 172 186 168 119 99 102 207 210 198 200 194 199 182 168 176 182 183 174 169 162 151 148 164 157 154 173 173 178 169 162 163 158 168 177
186 182 184 185 183 181 184 190 194 195 190 186 183 184 185 184 184 183 185 190 193 195 195 196 193 189 188 187 188 189 193 201 211 203 189 182 180 178 176 177 180 175 176 178 171 163 155 154 157 157 165 166 162 171 165 173 176 140 100 112 233 217 198 319 85 193 231 185 169 173 182 181 178 169 166 170 168 171 185 186 184 191 186 178 174 169 174 181
189 185 184 186 187 183 184 190 195 197 194 190 188 187 188 188 188 189 190 193 195 197 196 194 192 188 188 188 187 189 189 203 220 204 189 184 181 181 178 178 181 177 179 179 175 171 158 151 164 171 175 180 173 181 180 170 178 154 119 164 223 193 170 351 47 9 221 178 170 169 171 185 183 176 184 169 145 235 224 206 208 213 202 191 186 183 182 186
193 189 185 187 191 187 184 190 196 199 198 195 192 191 191 191 192 193 192 194 196 197 196 193 192 190 188 188 188 184 172 169 216 199 189 189 183 180 181 183 182 179 180 181 186 185 170 158 165 173 176 184 153 160 201 172 150 106 118 206 187 163 160 163 73 72 173 167 166 160 158 179 174 181 196 175 161 228 228 220 225 227 217 206 200 196 192 193
199 194 189 189 192 191 186 189 195 200 201 199 196 195 194 194 194 195 195 195 196 196 195 193 191 190 188 189 187 180 175 153 187 189 189 188 183 181 185 189 184 181 183 185 194 192 182 178 170 168 166 158 159 161 184 174 155 118 252 264 160 177 170 152 135 145 174 164 154 155 165 168 160 190 207 195 205 222 229 233 233 233 230 221 213 206 203 202
203 197 194 192 192 193 189 188 194 200 203 202 200 199 197 197 196 198 198 195 196 195 193 193 190 190 189 190 187 187 200 203 158 180 189 185 184 188 190 190 184 182 184 185 192 190 185 186 177 169 141 103 173 182 159 164 155 118 180 242 140 162 152 150 149 141 168 167 152 153 162 164 166 192 210 217 226 223 222 221 219 225 228 228 222 216 215 213
206 201 198 195 193 194 192 190 193 199 203 204 203 202 201 199 198 200 199 196 196 194 192 192 189 190 190 191 190 194 213 216 183 177 182 181 186 190 189 186 181 180 181 183 188 183 182 184 179 176 154 161 194 180 148 136 86 94 161 202 143 136 154 154 161 146 154 162 151 153 158 168 182 198 227 233 229 219 216 210 195 204 217 229 228 226 223 219
208 205 201 197 195 193 193 192 193 198 202 204 203 204 203 201 200 201 201 198 195 193 192 191 190 191 191 192 191 195 212 211 206 185 175 178 184 185 185 181 179 177 177 180 180 179 183 181 183 190 200 214 181 157 153 145 286 172 154 169 157 149 157 154 178 169 156 164 154 169 166 158 187 242 261 243 237 225 222 222 220 222 226 227 226 227 225 222
210 208 203 199 197 195 194 194 194 197 200 203 203 204 204 202 202 202 202 200 195 193 191 191 191 191 191 191 187 194 208 201 199 191 176 176 178 178 179 177 177 175 176 178 176 178 180 172 179 185 178 172 152 129 151 150 169 158 140 141 139 143 152 153 188 183 171 176 162 194 197 155 181 202 258 249 241 223 221 225 229 233 235 231 224 223 224 223
213 209 205 201 199 197 196 195 194 195 199 202 203 205 205 203 202 203 203 201 197 194 191 193 193 192 192 192 190 195 203 196 193 189 177 172 171 170 173 174 174 175 180 183 179 180 178 165 166 176 173 154 144 110 121 130 135 143 131 107 56 70 204 222 193 182 174 171 182 196 211 210 151 178 248 251 237 222 222 223 228 231 233 234 229 224 222 224
216 210 206 204 202 199 198 197 195 193 196 200 203 205 204 203 202 202 204 202 199 195 193 194 192 193 192 196 202 203 200 191 185 180 170 162 162 165 168 169 169 174 185 189 185 183 178 170 167 180 165 148 142 103 122 128 132 140 126 93 355 3 339 248 219 190 176 149 202 68 354 275 202 222 244 248 230 238 232 223 224 227 232 234 234 232 228 229
217 212 209 207 205 202 200 199 197 194 194 197 202 205 204 203 201 201 203 201 200 197 195 195 193 193 190 198 208 204 192 180 176 171 163 157 158 163 167 168 168 172 180 187 187 182 176 170 167 169 151 146 142 124 133 124 129 142 117 94 40 12 340 255 227 188 170 165 195 111 299 272 250 236 242 252 252 247 238 227 223 226 232 234 236 236 234 236
217 214 211 210 208 205 202 200 198 196 194 195 199 204 204 202 200 200 201 199 199 197 197 195 191 191 192 203 209 201 192 175 174 169 163 159 158 161 165 168 171 174 174 174 177 179 174 159 150 150 141 142 137 126 113 73 108 133 100 68 70 89 284 287 228 160 149 209 210 112 207 262 276 265 261 270 257 237 231 230 226 229 231 233 236 237 239 241
221 217 212 210 209 206 204 200 199 196 194 194 197 201 203 201 200 199 198 197 196 196 198 194 189 187 194 211 210 201 193 179 176 172 166 163 162 162 164 167 170 172 168 163 167 169 164 156 150 133 120 131 130 116 60 15 34 49 102 308 347 149 259 306 228 171 157 205 204 109 219 266 278 284 313 312 247 215 224 234 231 234 235 236 238 238 242 247
226 220 211 209 206 206 205 201 200 196 193 193 194 198 201 200 199 197 197 193 192 196 195 191 187 183 189 208 202 195 188 182 178 173 170 167 168 170 164 163 166 167 163 157 159 158 159 159 143 121 117 130 123 98 58 34 349 2 105 203 269 158 253 310 257 205 176 156 195 142 223 274 285 275 354 31 183 201 227 240 237 239 242 242 244 245 248 252
231 224 214 209 204 204 203 200 199 195 191 190 191 196 199 198 197 195 192 187 188 191 188 186 183 184 209 210 192 188 184 182 180 176 172 169 170 171 165 160 160 163 158 153 154 152 154 149 137 133 107 102 102 94 87 42 270 293 46 163 222 180 184 268 288 252 158 139 234 167 206 255 270 273 276 279 261 251 249 252 252 249 250 251 251 252 252 253
231 228 218 210 203 201 200 199 197 193 189 187 189 194 195 195 194 192 187 181 175 169 178 183 172 178 237 211 191 187 185 182 181 180 175 171 168 167 164 157 156 157 148 145 152 150 145 129 123 125 41 58 97 105 126 208 195 190 185 151 225 210 191 234 259 234 143 122 231 183 226 255 265 276 273 267 268 269 263 262 264 261 259 258 257 256 255 255
228 230 224 213 203 198 197 196 193 190 187 186 187 188 189 187 182 184 180 173 165 153 177 186 173 167 266 196 187 186 184 182 182 182 177 172 169 169 165 154 155 154 143 137 145 145 131 99 96 117 163 177 180 152 167 198 172 170 177 145 160 180 228 243 251 251 165 129 236 225 229 252 260 272 273 270 272 270 266 268 266 264 262 261 259 258 257 258
228 231 228 217 204 196 194 194 191 187 185 185 183 179 176 167 152 166 178 174 173 165 319 186 183 195 357 176 181 180 178 179 182 182 178 176 171 166 161 154 151 143 139 146 151 147 116 115 157 185 196 193 191 176 157 156 139 134 127 110 153 171 237 256 271 304 117 146 249 242 242 259 260 265 270 271 277 274 264 263 261 262 261 259 259 258 258 258
230 233 231 218 204 195 193 191 188 185 183 183 180 177 174 168 156 168 178 180 188 182 17 183 185 204 256 173 177 175 170 172 182 183 178 177 171 163 163 155 136 120 155 141 124 94 94 138 207 214 205 189 181 170 128 108 92 96 122 120 153 184 223 246 247 304 24 144 266 308 292 268 259 263 268 270 274 265 255 252 256 259 258 258 258 259 261 263
231 235 228 215 202 194 191 188 185 181 180 180 180 180 182 183 185 189 178 181 198 191 154 180 186 204 201 175 176 172 166 162 180 185 179 174 172 172 169 149 124 144 164 104 102 60 65 198 234 225 199 147 118 138 123 108 92 82 118 127 171 227 263 295 296 313 18 131 272 352 330 276 263 257 262 262 256 258 258 253 256 260 260 260 260 262 265 268
227 229 224 213 199 191 188 183 179 178 178 181 183 182 184 188 193 193 179 169 193 196 185 180 190 201 181 172 178 175 168 161 175 184 180 176 177 177 166 146 126 141 128 129 135 118 124 244 243 202 164 117 89 129 123 99 88 91 114 131 212 255 257 271 289 312 0 43 277 354 322 283 283 277 267 262 256 263 267 261 259 259 259 262 263 265 268 270
219 221 220 210 195 188 181 175 175 176 180 183 185 185 184 188 191 188 178 144 181 197 195 188 194 201 187 172 181 182 177 176 181 183 181 180 177 173 170 156 125 133 159 156 143 151 201 256 215 133 136 125 106 130 141 135 145 16 134 145 189 220 171 203 273 315 354 359 16 32 331 290 310 325 288 280 274 273 276 275 268 259 256 260 262 263 263 266
216 217 217 201 187 183 174 173 176 177 181 184 184 185 184 187 188 181 171 99 0 198 199 196 200 207 197 181 183 183 178 187 190 186 184 184 177 166 170 163 138 164 184 143 129 165 235 264 137 120 105 117 118 143 171 163 166 300 234 178 173 169 156 162 355 29 29 344 331 39 353 288 314 318 280 294 319 296 293 297 284 275 265 257 258 261 260 263
214 214 210 190 179 175 171 176 180 177 181 184 182 183 185 185 181 177 160 51 310 208 182 190 196 201 196 188 177 167 166 205 194 187 185 185 182 167 158 159 131 176 174 138 129 186 237 332 103 125 125 118 119 157 198 152 125 252 244 178 147 127 121 123 90 59 72 262 295 55 103 266 303 290 260 278 296 290 291 292 284 280 275 264 261 265 262 266
209 204 194 178 171 169 170 178 180 178 180 182 180 179 183 180 173 173 146 32 276 187 152 180 184 185 191 185 169 157 148 179 165 182 184 182 184 175 169 176 120 162 163 131 145 233 173 92 65 93 102 106 126 181 207 140 120 228 231 140 128 119 127 135 111 101 229 254 318 17 122 232 290 270 257 276 280 280 280 279 276 272 271 272 269 263 260 267
203 192 177 167 166 165 168 179 181 178 174 176 177 175 178 175 167 162 131 38 216 153 146 179 172 176 182 174 174 166 137 153 144 182 183 178 183 176 175 193 164 154 148 129 176 257 154 154 163 130 102 126 176 221 203 132 108 240 203 127 130 130 130 118 102 100 4 8 311 309 130 206 269 274 294 338 287 278 268 261 263 268 275 283 274 263 261 266
180 177 167 160 162 162 165 182 181 175 167 167 169 169 169 166 159 142 104 176 168 119 145 167 164 176 171 163 176 171 139 151 143 169 175 176 184 176 148 190 165 123 71 100 166 232 49 177 191 142 131 188 205 256 201 138 108 179 141 96 77 77 85 78 94 110 43 2 256 226 174 211 267 279 300 350 287 262 261 262 266 277 284 283 271 263 262 258
165 162 159 157 160 163 168 179 177 171 165 164 164 160 156 153 148 131 177 213 165 104 128 158 170 172 157 150 174 175 145 141 125 145 160 172 179 168 127 162 148 104 43 34 106 238 332 82 167 116 149 179 151 73 58 125 137 134 100 63 49 33 42 46 58 86 68 285 256 222 189 198 275 277 252 229 225 226 258 288 285 284 288 279 267 260 247 233
163 161 160 162 166 167 165 171 173 170 167 165 160 154 148 137 120 148 191 202 113 113 109 149 183 161 157 159 166 169 112 59 138 145 150 155 162 156 127 143 115 89 42 25 56 318 353 67 1 54 147 130 105 63 36 53 110 110 80 76 70 351 9 21 2 47 135 252 265 266 214 165 238 258 250 250 252 238 239 264 277 293 303 256 228 220 200 188
168 167 167 170 172 164 156 163 170 169 170 169 163 156 146 118 193 199 205 164 143 188 170 176 205 171 165 159 145 159 115 95 167 154 150 147 158 177 163 170 154 118 197 196 148 322 2 145 299 342 182 155 113 73 34 14 39 76 91 100 95 337 5 342 301 248 225 245 266 298 283 216 235 241 253 263 262 251 230 227 254 279 266 123 127 171 187 181
180 174 167 171 173 161 150 157 168 169 170 172 168 156 126 120 203 214 218 192 196 198 157 154 152 147 154 147 152 170 125 142 189 163 151 146 161 204 233 214 163 131 184 181 134 136 277 307 308 78 263 213 152 124 138 247 89 128 136 133 138 136 137 251 262 264 262 262 284 304 239 253 275 261 241 243 248 262 261 248 259 273 257 356 324 230 227 211
187 184 173 167 165 161 152 153 167 172 171 171 167 146 128 178 210 211 205 210 221 59 90 125 114 126 151 156 184 176 120 179 182 140 134 137 152 205 235 238 189 104 111 151 149 167 186 280 224 174 200 192 179 172 160 147 154 181 155 136 155 160 165 207 212 213 250 279 297 300 240 204 227 273 245 250 272 288 287 277 277 277 266 269 265 247 239 233
181 190 188 176 166 164 159 158 168 173 173 168 159 147 180 196 216 207 193 196 186 58 51 102 116 135 169 154 213 193 154 193 177 132 153 168 174 195 195 206 198 134 127 162 195 166 167 255 243 227 151 164 175 191 148 117 116 229 115 112 187 190 151 133 190 182 181 310 299 251 233 216 209 273 271 266 283 287 280 276 278 273 264 263 265 258 246 237
171 186 197 195 184 168 158 162 167 171 173 164 153 196 200 204 214 194 180 161 153 130 105 93 96 139 175 156 197 215 205 113 160 150 183 194 205 198 192 205 194 175 164 162 173 158 146 271 275 0 45 174 167 171 155 139 169 178 144 183 216 177 123 107 245 122 81 261 272 207 248 284 325 288 281 272 280 291 289 281 279 273 265 266 271 269 257 243
182 182 199 206 202 187 172 169 166 169 174 168 181 207 201 214 200 166 181 136 137 140 128 137 157 147 167 166 187 205 198 105 157 171 190 201 240 198 195 229 198 187 188 164 171 196 155 245 289 122 189 262 133 131 107 54 129 134 187 206 181 88 91 108 211 344 40 248 272 244 242 274 303 271 303 327 263 276 288 281 279 276 267 265 269 270 264 252
187 199 216 214 211 208 196 184 174 173 171 168 210 219 195 197 189 63 333 126 131 137 138 161 166 143 168 181 188 190 177 162 178 186 178 193 242 197 175 203 204 196 200 182 180 217 152 185 298 27 178 275 24 115 240 351 96 133 185 177 115 124 205 109 162 199 166 234 271 285 261 253 218 223 280 283 222 241 264 268 275 273 263 258 259 264 267 263
180 197 230 216 208 218 209 193 186 178 167 180 211 218 175 130 27 34 24 43 134 137 158 182 167 136 175 175 165 176 183 178 174 181 181 186 234 204 175 187 203 197 198 185 177 206 145 177 263 319 240 305 43 151 201 200 55 61 93 112 100 147 174 166 165 170 172 201 246 300 304 257 227 205 192 210 217 215 234 250 257 252 249 249 253 265 273 264
176 179 228 207 198 215 210 195 191 179 171 200 204 202 80 85 38 28 41 44 85 109 168 195 167 145 172 171 156 170 183 176 168 182 202 188 211 234 192 190 186 184 188 180 176 177 130 185 228 311 336 199 173 209 191 170 158 142 154 177 192 127 108 166 193 131 143 171 197 263 277 262 252 195 177 200 217 213 219 232 237 242 248 253 257 263 260 213
170 169 229 199 191 204 201 190 184 159 163 221 196 139 327 77 86 348 24 44 60 58 93 163 161 154 155 159 175 174 162 160 171 186 209 197 206 241 207 193 171 141 153 163 195 200 171 179 174 146 206 205 224 247 193 179 183 174 180 193 191 172 136 168 235 228 128 170 179 196 266 266 243 195 185 196 211 221 225 226 236 251 258 264 262 252 223 126
167 169 207 190 187 193 193 186 117 99 146 212 182 159 165 97 75 317 4 50 65 38 42 81 131 149 149 163 174 162 153 160 179 187 207 212 210 218 205 191 172 152 149 172 203 192 137 113 133 170 214 217 243 265 225 207 211 189 203 199 186 186 166 170 214 220 151 216 177 138 268 270 237 190 204 217 228 244 245 232 235 254 263 272 247 164 110 79
173 171 176 183 187 185 182 185 88 134 167 203 176 166 170 146 91 97 330 48 59 30 34 39 53 86 138 169 155 159 167 174 187 194 207 221 221 224 204 182 169 158 155 174 197 174 120 108 142 219 312 312 307 321 355 48 188 228 241 185 158 195 174 157 190 179 167 210 189 146 250 263 272 214 223 245 255 269 267 238 225 238 166 105 102 98 84 62
178 172 164 182 187 182 177 178 167 171 178 160 159 180 189 207 195 174 185 171 138 88 84 52 5 53 142 118 123 177 189 184 196 203 204 211 223 228 200 182 173 165 173 185 177 171 178 176 144 137 332 323 323 321 307 264 198 217 241 191 174 163 111 89 122 130 206 222 190 185 238 254 290 318 275 281 306 335 305 192 179 94 91 106 103 90 77 60
171 176 191 191 188 185 189 205 160 158 164 158 160 176 178 216 249 202 177 128 158 155 139 170 74 73 118 75 56 158 195 161 194 206 206 215 234 238 190 189 183 183 200 198 174 165 176 192 161 165 201 215 215 222 215 195 180 211 221 205 196 169 152 169 198 168 226 230 191 194 238 249 302 336 297 314 11 14 115 170 130 87 98 106 95 79 51 32
164 188 205 204 201 198 207 212 173 155 163 166 159 175 180 190 257 204 185 177 200 187 138 152 137 80 55 75 51 6 236 32 80 186 203 215 237 344 91 199 196 201 219 199 170 158 146 211 192 194 207 209 214 217 177 142 156 206 218 206 199 193 186 190 193 199 219 229 219 225 238 246 253 256 261 277 314 302 259 251 249 116 117 120 86 18 333 332
158 206 182 175 222 219 224 221 190 161 159 168 163 170 181 183 169 186 191 201 212 197 185 355 173 170 201 165 139 222 240 352 59 155 202 215 243 307 9 129 200 211 236 194 173 159 100 219 207 209 218 221 222 209 169 157 176 201 213 207 201 201 193 192 209 219 218 221 240 237 227 240 249 234 222 252 260 258 260 258 259 261 30 290 302 308 306 307
176 239 190 174 186 211 224 214 195 165 150 164 173 159 172 185 182 177 188 199 209 189 184 309 232 214 210 171 144 171 180 19 251 200 174 169 246 337 10 24 146 208 220 186 180 159 133 215 213 207 224 236 234 195 171 182 191 200 208 207 201 198 192 198 215 224 218 209 237 241 218 221 244 238 213 231 233 230 246 249 251 269 282 286 296 300 297 297
204 249 218 202 189 160 167 171 170 167 160 168 184 170 171 191 196 183 158 142 177 192 183 203 231 219 216 193 178 197 180 174 231 213 163 155 179 117 136 214 333 43 95 146 185 167 165 215 216 196 218 243 238 202 180 193 199 206 213 210 203 199 198 204 214 223 223 218 233 247 238 233 244 235 212 230 233 235 246 251 251 257 264 275 286 289 289 291
204 233 214 195 195 144 114 146 159 176 181 177 197 198 185 193 194 185 151 154 170 186 188 206 219 209 213 204 186 214 221 206 218 217 166 145 190 163 162 209 222 31 46 100 147 261 193 216 217 169 204 246 239 207 182 193 199 210 223 223 215 208 208 213 218 223 226 228 235 245 252 255 248 203 213 236 233 228 238 241 241 247 256 271 280 281 283 285
199 211 196 138 176 202 182 143 149 165 188 190 200 197 195 201 189 173 173 189 187 171 184 206 210 189 202 204 195 219 227 217 227 234 201 170 205 216 141 164 136 63 25 39 64 20 192 207 74 119 202 242 236 186 170 178 188 216 232 228 218 213 213 215 218 220 216 220 231 237 247 255 235 171 214 230 197 197 221 228 236 247 258 270 275 274 274 277
200 207 211 157 99 211 190 139 142 173 201 204 198 182 181 193 175 162 182 211 202 197 198 201 194 169 179 199 210 221 223 222 235 243 230 215 230 237 226 227 196 98 82 93 59 9 140 151 152 156 210 241 231 151 148 137 146 233 236 224 214 211 212 211 220 227 220 213 218 223 234 245 217 159 217 222 169 196 223 229 241 256 264 267 268 268 271 276
Height
1481 1483 1485 1486 1487 1490 1492 1494 1496 1497 1498 1499 1500 1502 1504 1505 1506 1508 1510 1512 1514 1515 1516 1517 1518 1520 1521 1522 1523 1524 1525 1525 1526 1526 1526 1527 1528 1528 1529 1530 1531 1531 1532 1532 1533 1533 1533 1534 1535 1535 1536 1536 1537 1537 1538 1538 1538 1539 1543 1547 1549 1552 1550 1546 1548 1547 1544 1544 1545 1545 1546 1548 1549 1549 1550 1550 1551 1551 1552 1553 1553 1553 1553 1554 1554 1555 1555 1556
1480 1482 1484 1486 1487 1489 1491 1494 1496 1498 1498 1499 1500 1502 1504 1505 1506 1508 1509 1512 1513 1514 1515 1516 1517 1519 1520 1521 1522 1523 1524 1525 1525 1525 1526 1526 1527 1528 1529 1529 1530 1530 1531 1532 1532 1533 1533 1534 1534 1535 1536 1536 1537 1537 1537 1538 1538 1540 1544 1547 1548 1549 1546 1544 1544 1543 1543 1542 1543 1545 1546 1547 1548 1548 1549 1550 1551 1551 1552 1552 1552 1553 1553 1553 1554 1555 1555 1556
1479 1481 1483 1485 1486 1488 1490 1493 1495 1497 1498 1499 1500 1502 1503 1504 1506 1507 1509 1511 1512 1513 1514 1515 1516 1518 1519 1520 1522 1523 1524 1524 1524 1524 1525 1525 1526 1527 1528 1528 1529 1530 1531 1531 1532 1532 1533 1534 1534 1535 1536 1536 1536 1537 1537 1538 1538 1539 1543 1545 1545 1545 1543 1543 1542 1542 1542 1541 1542 1544 1546 1547 1547 1548 1548 1549 1551 1551 1550 1550 1551 1551 1551 1552 1553 1554 1555 1556
1479 1480 1482 1484 1486 1487 1489 1492 1494 1496 1498 1499 1500 1501 1503 1504 1505 1506 1508 1509 1511 1512 1513 1514 1516 1517 1518 1520 1521 1522 1523 1524 1523 1523 1524 1524 1526 1526 1527 1528 1529 1530 1530 1531 1532 1532 1533 1533 1534 1534 1535 1536 1536 1537 1537 1537 1538 1539 1541 1544 1543 1543 1543 1542 1541 1541 1541 1541 1542 1544 1546 1547 1547 1548 1548 1548 1551 1552 1549 1547 1548 1549 1550 1551 1552 1553 1554 1555
1478 1480 1481 1483 1485 1486 1488 1491 1493 1496 1497 1498 1500 1501 1502 1503 1505 1506 1507 1508 1510 1511 1512 1514 1515 1516 1518 1519 1521 1521 1523 1524 1521 1521 1523 1524 1525 1526 1526 1527 1528 1529 1530 1530 1531 1532 1532 1533 1534 1534 1535 1535 1536 1537 1537 1537 1538 1540 1542 1542 1541 1542 1543 1542 1541 1541 1541 1542 1543 1544 1545 1546 1546 1547 1547 1547 1549 1548 1546 1546 1547 1547 1548 1549 1550 1551 1552 1553
1477 1479 1481 1482 1484 1486 1487 1489 1492 1495 1496 1498 1499 1501 1502 1503 1504 1505 1506 1507 1509 1510 1512 1513 1515 1516 1517 1519 1520 1521 1522 1521 1519 1520 1522 1523 1524 1525 1526 1527 1527 1528 1529 1530 1530 1531 1532 1533 1533 1534 1534 1535 1536 1537 1537 1538 1538 1540 1542 1542 1541 1542 1542 1542 1542 1541 1542 1543 1543 1544 1545 1545 1546 1546 1546 1546 1545 1545 1545 1545 1546 1547 1548 1548 1549 1549 1550 1551
1476 1478 1480 1481 1483 1485 1486 1488 1491 1493 1496 1497 1499 1500 1501 1503 1504 1505 1506 1507 1508 1510 1511 1513 1514 1516 1517 1518 1519 1520 1520 1519 1519 1520 1521 1522 1523 1524 1525 1526 1527 1528 1528 1529 1529 1530 1531 1532 1533 1533 1534 1535 1536 1536 1536 1537 1538 1539 1542 1542 1541 1541 1541 1542 1542 1542 1543 1543 1543 1544 1544 1545 1545 1546 1546 1545 1544 1545 1545 1545 1545 1546 1547 1548 1548 1548 1549 1549
1475 1477 1478 1480 1482 1484 1486 1487 1489 1492 1495 1497 1499 1500 1501 1502 1504 1505 1506 1507 1508 1509 1511 1512 1514 1515 1517 1517 1518 1519 1519 1518 1518 1519 1519 1521 1522 1523 1524 1525 1526 1527 1528 1528 1529 1530 1530 1531 1532 1533 1534 1535 1534 1535 1536 1537 1539 1539 1541 1541 1541 1541 1541 1541 1542 1543 1543 1543 1544 1544 1544 1545 1545 1546 1545 1543 1543 1544 1544 1544 1544 1545 1546 1546 1546 1547 1548 1548
1474 1476 1477 1479 1481 1483 1485 1486 1488 1491 1493 1496 1498 1499 1501 1502 1503 1505 1506 1506 1507 1509 1510 1512 1513 1514 1516 1517 1518 1518 1517 1517 1518 1518 1519 1520 1521 1522 1523 1524 1525 1526 1527 1528 1528 1529 1530 1530 1531 1532 1533 1534 1534 1535 1535 1537 1539 1539 1539 1540 1541 1541 1541 1542 1542 1543 1543 1543 1544 1544 1545 1545 1545 1545 1543 1540 1541 1543 1543 1544 1544 1544 1544 1545 1545 1545 1546 1547
1473 1475 1476 1478 1480 1482 1484 1485 1487 1489 1492 1495 1497 1499 1500 1502 1503 1504 1505 1506 1507 1508 1510 1511 1512 1514 1515 1516 1517 1517 1515 1516 1517 1517 1518 1519 1520 1521 1522 1524 1525 1526 1526 1527 1527 1528 1529 1530 1531 1532 1532 1533 1533 1535 1536 1537 1538 1538 1539 1541 1541 1542 1542 1542 1542 1543 1543 1543 1544 1544 1545 1545 1545 1546 1542 1538 1540 1541 1542 1542 1542 1543 1543 1543 1544 1544 1545 1546
1472 1473 1475 1477 1479 1481 1482 1484 1486 1488 1491 1494 1496 1498 1500 1501 1502 1504 1505 1506 1507 1508 1509 1510 1512 1513 1514 1515 1515 1515 1514 1515 1516 1517 1517 1518 1519 1521 1522 1523 1524 1525 1526 1526 1527 1528 1529 1530 1530 1531 1532 1533 1534 1535 1536 1536 1537 1538 1539 1541 1543 1543 1543 1543 1542 1543 1543 1543 1543 1543 1544 1545 1546 1545 1540 1537 1539 1539 1540 1540 1541 1541 1541 1542 1542 1543 1544 1544
1470 1472 1474 1475 1477 1479 1481 1483 1485 1487 1489 1492 1495 1497 1499 1500 1501 1503 1504 1505 1506 1507 1508 1510 1511 1512 1514 1514 1514 1514 1514 1515 1515 1516 1517 1518 1519 1520 1522 1523 1524 1525 1525 1526 1527 1527 1529 1529 1530 1530 1531 1532 1534 1536 1537 1537 1538 1538 1539 1542 1545 1544 1543 1543 1543 1543 1543 1543 1543 1544 1545 1544 1544 1541 1536 1537 1539 1538 1539 1539 1539 1539 1540 1541 1541 1542 1542 1543
1469 1470 1472 1474 1476 1478 1479 1482 1484 1485 1488 1491 1494 1496 1498 1499 1501 1502 1503 1504 1505 1506 1508 1509 1511 1512 1513 1513 1513 1513 1514 1514 1515 1516 1517 1517 1519 1520 1521 1522 1524 1525 1525 1526 1526 1527 1528 1529 1529 1530 1530 1532 1534 1535 1536 1537 1538 1540 1541 1543 1546 1547 1545 1542 1543 1543 1543 1544 1543 1545 1548 1543 1539 1538 1535 1537 1538 1537 1538 1537 1538 1538 1538 1539 1539 1540 1540 1541
1467 1469 1471 1472 1474 1476 1478 1480 1483 1484 1487 1490 1492 1495 1497 1499 1500 1501 1502 1503 1504 1506 1507 1508 1510 1511 1512 1512 1512 1512 1513 1514 1515 1515 1516 1517 1518 1520 1521 1522 1523 1524 1525 1525 1526 1527 1527 1529 1529 1529 1531 1532 1533 1534 1537 1539 1539 1542 1543 1545 1550 1550 1545 1543 1543 1543 1543 1545 1543 1545 1550 1543 1536 1536 1535 1536 1536 1536 1536 1536 1537 1537 1537 1538 1538 1538 1538 1539
1465 1467 1469 1471 1473 1475 1477 1479 1481 1483 1486 1488 1491 1494 1496 1498 1499 1500 1501 1502 1504 1505 1506 1508 1509 1510 1511 1511 1511 1511 1512 1513 1514 1515 1516 1517 1518 1519 1521 1522 1523 1523 1524 1525 1525 1526 1527 1528 1529 1530 1531 1532 1533 1535 1538 1540 1541 1544 1546 1550 1554 1551 1546 1544 1542 1543 1543 1544 1543 1545 1549 1543 1537 1535 1535 1534 1534 1534 1535 1535 1535 1535 1536 1536 1536 1536 1536 1537
1464 1465 1467 1469 1471 1473 1476 1478 1480 1482 1484 1487 1490 1493 1495 1496 1497 1498 1500 1501 1503 1504 1506 1507 1508 1510 1510 1510 1510 1510 1511 1512 1513 1515 1516 1517 1518 1519 1520 1521 1522 1523 1523 1524 1525 1526 1527 1528 1529 1530 1531 1533 1535 1536 1541 1545 1545 1546 1547 1549 1553 1551 1548 1546 1542 1542 1543 1543 1544 1545 1546 1543 1537 1534 1534 1534 1534 1534 1534 1534 1535 1534 1534 1534 1534 1534 1534 1534
1462 1464 1465 1467 1469 1472 1474 1477 1479 1481 1483 1486 1489 1492 1494 1495 1496 1497 1499 1500 1502 1503 1505 1506 1508 1509 1509 1508 1508 1508 1509 1511 1512 1514 1515 1517 1518 1519 1520 1521 1521 1522 1523 1524 1525 1526 1527 1528 1530 1531 1532 1534 1536 1536 1543 1551 1549 1549 1549 1548 1551 1551 1550 1547 1543 1542 1543 1543 1544 1545 1546 1542 1537 1535 1534 1535 1534 1535 1534 1533 1533 1533 1533 1532 1532 1532 1532 1532
1461 1462 1463 1465 1467 1470 1473 1475 1477 1480 1482 1485 1488 1490 1492 1494 1495 1496 1498 1500 1501 1503 1505 1505 1507 1510 1508 1505 1506 1507 1508 1510 1512 1513 1515 1516 1517 1518 1519 1520 1521 1522 1522 1524 1525 1525 1527 1528 1529 1532 1534 1535 1536 1537 1542 1547 1545 1545 1547 1547 1549 1550 1549 1547 1544 1542 1542 1543 1545 1546 1547 1542 1537 1535 1533 1533 1534 1534 1533 1532 1531 1530 1530 1530 1530 1529 1529 1529
1459 1461 1462 1463 1465 1468 1471 1473 1476 1479 1481 1484 1486 1489 1491 1493 1495 1496 1497 1498 1499 1501 1503 1502 1502 1505 1503 1502 1504 1506 1507 1509 1511 1512 1514 1515 1516 1518 1519 1520 1520 1521 1522 1524 1525 1525 1526 1528 1531 1534 1535 1535 1535 1535 1537 1538 1537 1539 1542 1543 1545 1546 1547 1546 1543 1542 1542 1544 1545 1544 1544 1541 1537 1535 1532 1531 1532 1532 1531 1529 1528 1526 1526 1526 1526 1525 1526 1525
1458 1459 1460 1462 1464 1466 1469 1472 1474 1477 1480 1482 1484 1487 1490 1491 1494 1496 1497 1497 1497 1498 1498 1498 1499 1500 1499 1499 1502 1504 1506 1508 1510 1511 1513 1514 1515 1517 1518 1519 1520 1521 1522 1523 1525 1526 1527 1530 1533 1533 1532 1532 1533 1534 1535 1537 1538 1539 1542 1543 1544 1545 1544 1543 1542 1542 1543 1543 1543 1542 1542 1540 1537 1535 1531 1529 1529 1530 1529 1526 1524 1522 1521 1521 1521 1521 1521 1521
1457 1458 1459 1460 1462 1464 1467 1470 1473 1475 1478 1480 1482 1484 1485 1487 1490 1493 1495 1497 1497 1497 1497 1497 1499 1500 1499 1500 1501 1503 1505 1507 1509 1511 1512 1514 1515 1516 1518 1519 1520 1522 1524 1524 1525 1526 1527 1532 1532 1529 1529 1530 1532 1534 1535 1538 1539 1539 1541 1542 1545 1546 1544 1543 1544 1543 1543 1543 1542 1543 1543 1538 1536 1533 1529 1527 1527 1524 1523 1522 1519 1516 1516 1516 1516 1517 1517 1517
1455 1456 1457 1459 1460 1462 1465 1468 1471 1474 1476 1478 1479 1481 1483 1485 1488 1490 1492 1496 1497 1497 1498 1498 1499 1500 1500 1501 1502 1502 1504 1506 1509 1510 1511 1513 1514 1515 1517 1518 1520 1522 1524 1524 1526 1529 1532 1532 1529 1527 1530 1531 1533 1535 1535 1537 1538 1538 1541 1542 1543 1546 1545 1544 1545 1543 1543 1543 1542 1544 1542 1534 1531 1531 1526 1523 1521 1517 1517 1517 1515 1512 1512 1512 1512 1513 1514 1514
1453 1454 1456 1457 1459 1461 1463 1466 1469 1472 1474 1475 1477 1480 1482 1485 1488 1490 1492 1494 1496 1497 1498 1498 1498 1499 1499 1501 1502 1502 1503 1504 1506 1508 1510 1511 1513 1514 1515 1517 1520 1522 1524 1525 1526 1532 1534 1530 1526 1527 1530 1530 1532 1535 1535 1536 1539 1540 1541 1542 1543 1547 1546 1543 1544 1544 1544 1545 1543 1545 1543 1532 1527 1527 1521 1517 1516 1512 1513 1513 1510 1510 1509 1508 1509 1510 1511 1510
1452 1453 1455 1456 1458 1460 1462 1466 1468 1470 1472 1474 1477 1479 1482 1485 1488 1490 1492 1494 1495 1495 1496 1497 1498 1498 1498 1499 1500 1502 1502 1503 1504 1506 1508 1510 1511 1514 1514 1516 1520 1522 1524 1525 1526 1528 1529 1527 1525 1528 1530 1529 1531 1535 1535 1535 1539 1542 1541 1541 1541 1543 1544 1544 1544 1544 1544 1546 1546 1545 1542 1530 1524 1524 1517 1513 1514 1510 1509 1509 1505 1505 1506 1505 1506 1508 1508 1507
1450 1452 1453 1454 1457 1459 1462 1465 1466 1469 1471 1473 1476 1479 1481 1484 1487 1490 1492 1494 1495 1495 1496 1496 1496 1496 1497 1498 1499 1500 1502 1503 1504 1505 1507 1509 1511 1513 1514 1515 1518 1522 1525 1526 1527 1527 1526 1526 1526 1527 1529 1530 1531 1533 1534 1534 1539 1542 1540 1538 1538 1538 1541 1544 1544 1544 1545 1547 1547 1547 1545 1533 1523 1523 1518 1512 1513 1509 1506 1506 1502 1500 1502 1503 1504 1505 1505 1506
1449 1450 1451 1453 1456 1458 1462 1464 1465 1468 1470 1473 1476 1478 1481 1482 1487 1489 1491 1499 1499 1493 1494 1495 1495 1494 1494 1497 1498 1500 1503 1503 1503 1504 1506 1509 1510 1511 1514 1516 1517 1520 1524 1526 1527 1527 1526 1526 1526 1526 1528 1530 1531 1532 1534 1535 1539 1541 1539 1539 1540 1539 1541 1543 1543 1544 1548 1549 1549 1550 1551 1543 1529 1520 1517 1515 1514 1512 1508 1504 1500 1497 1497 1500 1502 1502 1503 1504
1447 1449 1450 1453 1455 1457 1461 1463 1464 1467 1469 1473 1475 1478 1481 1482 1487 1488 1492 1509 1503 1488 1490 1493 1492 1491 1492 1495 1496 1499 1503 1501 1501 1505 1505 1508 1510 1510 1513 1515 1516 1518 1520 1523 1527 1527 1525 1526 1527 1527 1529 1531 1532 1532 1533 1534 1537 1540 1540 1541 1540 1539 1542 1544 1544 1545 1550 1551 1551 1551 1553 1553 1540 1521 1516 1520 1517 1514 1510 1504 1499 1494 1493 1496 1499 1500 1501 1502
1446 1448 1449 1452 1454 1457 1461 1462 1463 1465 1469 1473 1475 1479 1480 1482 1488 1487 1496 1512 1499 1481 1485 1489 1489 1490 1491 1494 1495 1496 1498 1497 1500 1504 1505 1507 1509 1509 1511 1513 1514 1516 1517 1521 1526 1526 1524 1525 1526 1526 1529 1532 1531 1531 1533 1532 1534 1539 1541 1541 1541 1541 1543 1545 1545 1548 1556 1555 1550 1551 1553 1555 1545 1523 1516 1519 1515 1510 1505 1500 1497 1493 1492 1495 1496 1497 1499 1501
1447 1448 1449 1452 1455 1458 1460 1461 1462 1466 1470 1473 1475 1479 1480 1483 1486 1487 1500 1506 1486 1476 1482 1484 1487 1490 1490 1493 1495 1495 1495 1496 1498 1501 1504 1507 1508 1509 1510 1512 1512 1515 1517 1518 1521 1524 1525 1525 1525 1525 1527 1529 1531 1534 1534 1532 1533 1538 1541 1541 1542 1545 1547 1548 1549 1549 1557 1556 1547 1547 1550 1547 1538 1522 1515 1517 1512 1507 1501 1497 1496 1494 1493 1494 1494 1496 1497 1499
1447 1448 1450 1452 1454 1457 1459 1460 1463 1467 1470 1473 1476 1478 1480 1484 1486 1494 1508 1497 1476 1477 1482 1482 1485 1486 1488 1493 1495 1495 1496 1497 1498 1500 1505 1507 1507 1508 1509 1511 1512 1515 1519 1520 1522 1525 1526 1526 1526 1526 1527 1528 1531 1534 1535 1534 1534 1536 1539 1539 1541 1546 1547 1550 1554 1552 1554 1552 1543 1544 1546 1545 1539 1523 1513 1512 1506 1502 1500 1497 1495 1493 1492 1493 1494 1495 1497 1498
1447 1449 1451 1452 1454 1456 1458 1461 1464 1466 1470 1473 1475 1478 1480 1484 1488 1498 1502 1484 1472 1480 1483 1483 1485 1484 1485 1488 1492 1496 1496 1498 1499 1499 1503 1506 1507 1508 1509 1511 1513 1518 1522 1522 1525 1528 1526 1526 1527 1527 1527 1528 1530 1533 1536 1536 1536 1536 1537 1539 1542 1547 1549 1551 1555 1556 1555 1549 1544 1548 1551 1550 1544 1523 1509 1508 1504 1501 1502 1499 1495 1493 1493 1494 1494 1495 1496 1498
1448 1449 1451 1453 1455 1456 1459 1462 1463 1466 1470 1472 1475 1477 1479 1487 1493 1492 1486 1474 1472 1478 1478 1480 1483 1483 1484 1485 1490 1495 1495 1498 1499 1498 1501 1505 1507 1507 1507 1508 1510 1518 1526 1525 1526 1529 1527 1527 1529 1528 1527 1528 1528 1533 1539 1539 1539 1538 1538 1542 1548 1555 1558 1555 1556 1560 1556 1550 1548 1552 1552 1546 1534 1517 1507 1504 1499 1499 1500 1498 1496 1495 1494 1494 1495 1496 1496 1498
1448 1450 1452 1454 1455 1457 1460 1462 1464 1467 1469 1471 1475 1476 1479 1490 1491 1480 1476 1473 1471 1472 1472 1475 1479 1481 1484 1486 1490 1493 1493 1497 1498 1499 1501 1503 1506 1507 1506 1507 1506 1510 1518 1523 1527 1530 1530 1530 1530 1528 1528 1526 1525 1530 1538 1540 1540 1539 1537 1541 1547 1557 1563 1559 1562 1565 1556 1548 1551 1554 1551 1538 1522 1510 1505 1499 1496 1496 1497 1496 1496 1495 1494 1494 1495 1496 1497 1498
1448 1450 1452 1454 1456 1458 1460 1461 1464 1466 1469 1471 1473 1476 1482 1487 1479 1469 1471 1472 1469 1471 1472 1473 1478 1483 1484 1486 1489 1489 1491 1497 1498 1498 1501 1503 1507 1508 1506 1506 1506 1506 1511 1521 1527 1527 1530 1529 1526 1524 1524 1523 1523 1525 1528 1532 1537 1538 1537 1539 1540 1545 1550 1551 1554 1553 1546 1545 1551 1554 1545 1527 1512 1506 1502 1499 1496 1496 1496 1495 1495 1494 1494 1495 1495 1496 1496 1497
1448 1450 1452 1454 1455 1457 1459 1461 1463 1465 1468 1470 1472 1477 1480 1477 1469 1464 1467 1468 1469 1472 1474 1474 1478 1484 1487 1487 1489 1487 1488 1495 1498 1499 1501 1502 1503 1504 1503 1503 1505 1506 1508 1517 1524 1526 1527 1524 1519 1520 1520 1519 1522 1523 1524 1528 1536 1540 1541 1541 1538 1535 1536 1544 1552 1551 1549 1550 1549 1547 1535 1518 1509 1504 1500 1499 1496 1495 1495 1494 1493 1493 1493 1494 1494 1494 1495 1496
1448 1450 1452 1453 1454 1456 1458 1461 1462 1465 1467 1468 1473 1476 1470 1463 1461 1461 1461 1462 1466 1470 1475 1479 1481 1484 1489 1489 1490 1489 1487 1491 1497 1500 1501 1502 1500 1500 1500 1498 1499 1501 1500 1506 1518 1524 1525 1523 1520 1521 1521 1520 1521 1522 1523 1526 1531 1539 1541 1537 1536 1534 1532 1540 1554 1559 1558 1552 1542 1539 1527 1513 1511 1503 1496 1498 1497 1494 1495 1493 1492 1492 1492 1493 1493 1492 1493 1495
1447 1449 1451 1452 1453 1455 1458 1460 1462 1465 1466 1468 1471 1468 1461 1457 1459 1459 1457 1459 1462 1466 1471 1478 1481 1482 1486 1489 1489 1489 1487 1490 1496 1498 1499 1502 1498 1495 1497 1495 1494 1496 1495 1498 1508 1513 1516 1520 1522 1522 1521 1522 1522 1522 1524 1524 1525 1534 1537 1532 1533 1538 1537 1538 1546 1554 1558 1553 1541 1535 1525 1515 1516 1508 1496 1497 1498 1495 1495 1493 1493 1492 1491 1492 1491 1490 1491 1493
1447 1449 1449 1450 1452 1454 1456 1459 1462 1463 1466 1469 1467 1461 1459 1459 1458 1458 1458 1458 1460 1463 1467 1472 1476 1477 1481 1486 1487 1487 1486 1488 1494 1496 1497 1500 1494 1486 1490 1492 1491 1493 1493 1495 1501 1504 1507 1514 1522 1526 1524 1523 1523 1524 1526 1526 1526 1528 1529 1529 1531 1536 1540 1541 1544 1545 1552 1554 1540 1530 1527 1519 1513 1506 1496 1495 1497 1495 1494 1493 1492 1491 1489 1489 1488 1488 1490 1492
1448 1449 1450 1450 1452 1454 1455 1458 1460 1462 1466 1468 1463 1459 1459 1459 1459 1460 1459 1459 1459 1461 1464 1467 1470 1474 1477 1479 1481 1485 1485 1485 1491 1494 1493 1495 1490 1482 1483 1485 1486 1490 1492 1493 1497 1501 1505 1509 1518 1526 1525 1524 1525 1525 1524 1525 1528 1528 1528 1530 1531 1532 1534 1536 1539 1537 1539 1546 1540 1529 1524 1512 1500 1498 1493 1492 1494 1493 1491 1491 1490 1488 1486 1485 1486 1488 1490 1492
1448 1450 1450 1449 1451 1453 1455 1457 1458 1460 1463 1462 1458 1459 1460 1459 1460 1460 1459 1459 1459 1460 1462 1462 1465 1470 1474 1476 1478 1481 1483 1484 1488 1490 1488 1489 1487 1482 1481 1481 1482 1487 1490 1494 1496 1499 1504 1506 1513 1525 1529 1526 1522 1518 1516 1518 1523 1527 1528 1530 1530 1531 1534 1533 1536 1535 1531 1535 1538 1533 1521 1503 1493 1492 1488 1487 1489 1488 1488 1488 1486 1485 1483 1483 1485 1487 1489 1491
1447 1449 1449 1448 1450 1452 1453 1455 1456 1458 1460 1459 1458 1460 1460 1459 1460 1460 1459 1459 1460 1460 1461 1461 1462 1465 1468 1473 1476 1476 1480 1483 1486 1487 1485 1484 1483 1479 1477 1476 1479 1484 1490 1497 1497 1496 1501 1505 1513 1525 1528 1521 1514 1512 1513 1513 1514 1516 1519 1521 1520 1523 1530 1533 1535 1536 1532 1529 1530 1532 1521 1497 1486 1488 1484 1483 1485 1483 1484 1484 1483 1483 1482 1482 1484 1486 1488 1490
1446 1448 1447 1446 1449 1451 1452 1454 1456 1458 1460 1459 1459 1459 1459 1459 1459 1460 1459 1459 1460 1461 1461 1461 1463 1463 1464 1468 1471 1473 1478 1481 1484 1484 1481 1479 1477 1474 1472 1473 1476 1480 1485 1492 1492 1490 1495 1504 1511 1518 1520 1515 1512 1513 1514 1513 1512 1514 1515 1514 1514 1516 1519 1523 1527 1529 1531 1530 1528 1533 1525 1494 1480 1485 1483 1482 1484 1482 1482 1483 1481 1481 1481 1482 1484 1485 1488 1489
1444 1445 1445 1445 1447 1449 1452 1455 1458 1459 1459 1459 1458 1457 1458 1459 1459 1460 1460 1460 1461 1462 1462 1463 1463 1464 1465 1466 1467 1470 1473 1476 1480 1480 1476 1476 1474 1471 1472 1473 1474 1478 1481 1485 1489 1490 1494 1501 1506 1512 1515 1513 1513 1513 1513 1514 1514 1515 1514 1513 1515 1516 1514 1516 1521 1522 1524 1524 1523 1532 1526 1495 1479 1484 1484 1482 1484 1482 1480 1480 1480 1481 1481 1482 1484 1486 1488 1489
1443 1443 1443 1445 1447 1448 1449 1451 1453 1457 1458 1458 1458 1458 1458 1459 1459 1460 1460 1461 1461 1462 1464 1464 1464 1464 1465 1466 1466 1467 1468 1470 1473 1474 1473 1474 1472 1470 1472 1473 1474 1476 1477 1479 1482 1485 1492 1498 1502 1510 1516 1516 1516 1516 1514 1514 1514 1513 1512 1513 1513 1513 1517 1520 1522 1523 1522 1516 1515 1523 1517 1492 1481 1484 1483 1482 1483 1480 1480 1480 1480 1482 1482 1482 1485 1486 1487 1489
1442 1443 1443 1444 1445 1446 1446 1445 1447 1452 1456 1457 1458 1459 1459 1459 1458 1459 1460 1461 1462 1462 1463 1464 1464 1464 1466 1467 1467 1467 1467 1467 1468 1470 1472 1472 1471 1470 1471 1472 1473 1473 1472 1473 1474 1477 1485 1490 1493 1501 1509 1511 1510 1507 1503 1506 1514 1513 1509 1510 1509 1510 1514 1515 1517 1523 1521 1511 1511 1513 1502 1486 1482 1483 1480 1481 1481 1480 1480 1480 1480 1482 1483 1484 1485 1486 1486 1488
1440 1442 1442 1443 1443 1443 1444 1443 1444 1448 1451 1454 1457 1457 1458 1459 1458 1458 1459 1460 1461 1461 1462 1464 1464 1465 1466 1467 1468 1468 1468 1469 1469 1470 1470 1470 1470 1471 1471 1471 1472 1472 1472 1473 1474 1477 1482 1484 1484 1487 1490 1490 1488 1487 1488 1495 1506 1507 1501 1502 1506 1507 1508 1508 1512 1516 1510 1504 1507 1503 1493 1487 1485 1483 1481 1480 1480 1481 1481 1480 1480 1482 1483 1484 1485 1485 1486 1486
1439 1439 1439 1441 1442 1442 1443 1443 1443 1444 1446 1449 1452 1453 1455 1457 1457 1458 1459 1459 1459 1461 1463 1463 1464 1465 1466 1467 1468 1469 1469 1470 1471 1470 1470 1470 1470 1471 1471 1471 1471 1472 1473 1474 1474 1477 1480 1482 1481 1481 1479 1477 1476 1479 1484 1487 1492 1494 1493 1496 1501 1503 1506 1508 1507 1501 1497 1504 1504 1492 1491 1493 1485 1481 1483 1480 1479 1481 1480 1478 1478 1479 1482 1483 1483 1483 1483 1483
1437 1437 1436 1437 1438 1439 1440 1441 1441 1442 1444 1446 1448 1449 1452 1455 1455 1456 1457 1458 1458 1460 1463 1465 1463 1463 1464 1465 1467 1469 1470 1471 1470 1469 1470 1471 1471 1471 1471 1471 1471 1471 1472 1474 1474 1475 1478 1478 1478 1480 1480 1476 1475 1480 1484 1483 1483 1485 1486 1489 1493 1498 1503 1503 1499 1490 1490 1499 1493 1481 1486 1490 1479 1477 1482 1479 1478 1479 1477 1477 1478 1479 1480 1481 1481 1481 1480 1480
1436 1435 1435 1435 1436 1436 1437 1438 1440 1441 1443 1444 1446 1447 1450 1452 1452 1451 1453 1457 1459 1459 1461 1464 1462 1460 1462 1464 1466 1468 1468 1468 1468 1468 1469 1470 1472 1472 1471 1471 1472 1471 1472 1474 1474 1475 1476 1474 1473 1477 1480 1477 1476 1481 1483 1482 1482 1483 1483 1484 1486 1491 1494 1492 1488 1484 1485 1489 1485 1478 1481 1481 1473 1474 1477 1475 1475 1477 1476 1476 1478 1478 1479 1479 1479 1479 1479 1479
1435 1434 1434 1435 1436 1436 1436 1437 1438 1440 1442 1443 1444 1444 1445 1447 1449 1449 1449 1452 1456 1458 1458 1459 1459 1458 1459 1462 1465 1466 1464 1463 1464 1466 1468 1469 1471 1472 1472 1471 1472 1472 1472 1473 1475 1476 1476 1475 1473 1475 1479 1477 1473 1477 1483 1483 1483 1482 1482 1483 1484 1486 1488 1486 1484 1483 1486 1488 1484 1481 1482 1476 1470 1472 1473 1472 1473 1475 1475 1475 1476 1476 1477 1478 1478 1477 1477 1478
1434 1434 1434 1435 1435 1435 1436 1436 1437 1439 1440 1441 1441 1441 1442 1444 1445 1447 1448 1448 1449 1453 1454 1454 1456 1458 1459 1461 1463 1462 1460 1461 1462 1463 1465 1468 1470 1471 1472 1472 1473 1473 1474 1475 1476 1476 1476 1477 1476 1477 1480 1474 1469 1476 1484 1484 1485 1486 1483 1480 1479 1480 1482 1483 1482 1480 1481 1482 1483 1486 1484 1472 1465 1468 1470 1470 1471 1472 1472 1472 1473 1474 1475 1476 1476 1474 1474 1476
1433 1434 1433 1435 1435 1435 1435 1435 1437 1438 1437 1436 1437 1438 1441 1442 1443 1445 1448 1447 1445 1447 1449 1450 1454 1457 1460 1461 1459 1456 1456 1460 1461 1462 1465 1467 1469 1470 1471 1472 1473 1474 1476 1477 1478 1478 1478 1477 1476 1478 1479 1472 1471 1477 1481 1484 1489 1486 1473 1465 1468 1473 1475 1478 1478 1474 1473 1475 1478 1479 1472 1462 1463 1468 1468 1467 1470 1470 1468 1469 1470 1471 1473 1474 1472 1470 1471 1473